Location: Sternwarte_Laufen
(47.9344°N, 12.9346°E)
Time: 15:33:57
(UTC+02:00)

ISS - Pass Details

Date: 07 May 2026
Orbit: 414 x 424 km, 51.6° (Epoch: 21 May)

Event Time Altitude Azimuth Distance (km) Brightness Sun altitude
Exits shadow 01:46:33 27° 53° (NE) 847 -1.8 -24.6°
Drops below altitude 10° 01:48:24 10° 73° (ENE) 1,499 -0.6 -24.6°
Sets 01:50:34 0° 81° (E) 2,365 0.3 -24.5°
